Wind_Speed
12 13 13 13 13 12 11 11 11 11 10 9 8 8 8 8 9 9 9 8 8 8 9 10 12 14 16 17 19 20 22 23 24 24 24 24 23 23 24 25 26 26 25
12 13 13 12 13 12 12 12 12 12 12 11 10 9 9 10 10 11 11 10 10 11 12 12 13 14 15 17 19 21 22 24 24 25 25 24 24 24 24 25 26 25 24
12 13 12 12 12 13 13 13 13 13 14 13 11 10 11 10 11 12 12 12 12 13 14 14 13 14 16 18 20 22 23 23 22 21 21 21 21 22 21 22 23 21 21
12 12 11 12 13 13 14 14 13 13 14 14 12 12 12 11 11 12 13 14 15 15 16 15 14 15 17 20 21 22 22 20 19 18 17 17 18 18 17 18 18 18 19
11 11 12 13 14 13 13 13 13 12 13 14 13 13 13 13 13 14 14 15 17 17 17 16 15 15 17 19 20 20 20 18 16 14 14 14 14 14 14 15 16 17 18
11 12 13 14 14 14 13 13 12 13 14 15 15 15 15 14 14 15 16 17 18 19 18 17 16 16 17 17 17 17 17 17 15 13 13 13 13 14 14 15 16 17 18
11 12 13 13 13 14 14 13 13 14 16 17 18 18 17 16 16 16 17 18 19 19 19 18 18 18 17 16 16 16 16 16 15 14 14 14 14 15 16 17 18 20 21
11 12 13 13 13 14 14 14 15 14 15 18 20 20 19 18 18 18 18 19 19 18 18 19 20 21 21 20 18 17 17 18 17 17 17 17 18 18 19 20 21 22 24
12 13 13 13 14 14 15 16 16 17 16 17 18 19 20 20 19 19 20 20 20 19 19 21 22 23 24 25 25 24 23 23 23 23 22 23 23 23 23 24 25 26 27
13 13 13 14 15 15 17 18 19 19 19 18 18 19 21 21 21 22 23 24 24 23 24 25 26 26 27 29 31 31 30 30 30 30 30 29 29 29 29 29 29 30 31
14 13 13 14 15 17 18 20 21 22 22 22 22 22 22 23 24 25 27 28 29 29 30 31 31 32 33 34 35 36 37 37 37 37 37 36 35 35 35 35 35 36 37
14 14 13 14 15 17 19 21 23 24 25 25 25 25 26 27 28 29 30 32 33 34 35 36 37 38 39 40 41 41 41 41 42 43 43 42 41 40 40 41 41 42 42
16 16 15 15 16 18 19 21 23 25 26 26 26 27 29 30 31 32 33 35 36 37 39 40 42 43 45 45 45 44 44 44 45 46 47 47 47 46 46 46 47 47 48
19 19 18 18 19 19 20 21 22 23 25 26 27 28 30 32 33 35 37 38 40 42 43 44 46 47 48 48 47 46 45 45 46 47 48 50 50 51 51 51 52 52 52
21 22 21 22 21 20 20 21 21 22 24 25 27 29 32 34 36 38 40 42 44 46 46 46 46 46 47 47 46 46 46 46 46 47 48 49 50 52 53 54 55 55 55
23 23 24 24 23 21 21 21 22 24 25 27 29 32 35 38 40 42 43 44 45 44 42 42 42 43 44 44 45 45 46 47 48 49 50 50 51 52 53 54 55 56 56
26 26 25 24 24 22 22 22 24 26 28 30 33 36 39 41 42 42 42 41 41 40 40 40 41 42 43 44 44 45 46 47 48 49 50 51 52 53 53 54 54 55 55
30 30 28 25 24 23 23 24 27 29 32 34 36 38 39 39 38 37 36 36 37 38 38 39 40 41 42 43 44 45 45 46 47 48 49 50 52 53 54 55 55 55 55
31 30 28 25 24 24 25 27 30 33 35 37 37 37 36 34 34 33 33 33 34 35 36 38 40 41 43 44 46 47 48 49 51 52 53 54 56 56 57 58 60 61 60
28 28 26 25 25 26 28 30 33 35 36 36 36 34 33 32 32 31 32 34 36 37 39 41 43 45 47 49 51 51 51 52 54 55 57 59 61 62 63 64 65 65 66
24 24 24 26 27 29 31 33 34 35 35 35 34 33 32 33 34 35 36 38 40 42 44 46 49 51 53 55 57 58 57 58 58 59 60 62 63 64 66 66 67 68 68
22 23 25 28 31 33 35 35 35 34 33 33 33 33 34 36 37 39 40 43 45 47 50 52 54 56 57 58 61 62 62 60 59 59 61 62 62 63 64 64 65 65 65
22 25 28 31 33 34 34 33 31 31 32 33 34 35 37 39 41 43 45 47 50 51 53 54 56 58 59 59 62 65 67 67 66 64 64 64 64 64 65 65 65 65 65
25 28 30 32 33 32 31 31 31 32 34 35 37 39 41 43 45 47 48 49 50 52 54 56 58 60 62 64 66 68 71 74 76 75 73 72 71 69 68 67 67 67 66
29 31 32 32 31 31 32 32 33 35 36 38 40 42 43 44 46 47 50 52 54 57 59 61 64 66 69 71 74 76 78 79 81 84 83 81 81 80 78 75 71 69 67
32 33 32 32 32 33 34 35 37 38 39 40 41 42 44 46 49 53 56 59 63 65 68 70 72 74 77 79 81 83 84 86 87 89 91 90 89 87 86 85 82 78 73
Wind_Direction
261 265 269 275 278 275 267 264 259 249 243 246 249 254 254 251 251 258 272 284 290 298 307 314 316 315 314 313 311 308 305 303 300 296 292 291 291 293 298 303 305 309 313
263 269 272 274 274 271 266 264 260 250 239 239 240 246 251 252 255 261 271 283 291 296 301 305 309 312 313 315 315 312 310 307 304 298 293 290 288 289 294 300 304 309 313
268 275 278 274 270 268 265 264 264 253 240 236 238 244 251 254 261 268 274 280 285 289 293 298 303 308 311 313 313 311 309 308 308 304 298 293 290 291 296 301 307 311 314
279 283 281 273 268 265 262 263 266 256 239 234 238 247 253 256 261 268 274 279 282 286 290 294 298 304 308 310 310 308 307 308 311 311 305 300 297 299 303 308 312 315 319
282 284 279 271 265 262 262 264 265 255 239 236 244 254 262 263 264 267 272 278 283 287 290 291 293 300 305 310 312 311 309 309 314 317 314 311 310 312 314 317 318 320 324
284 284 277 272 265 261 262 264 265 256 247 245 250 259 268 273 273 271 272 277 281 286 289 287 286 292 300 309 316 319 319 320 322 325 326 325 325 324 323 323 323 323 324
289 286 278 274 267 262 263 263 264 259 254 252 254 258 266 273 275 273 274 277 280 284 287 283 281 284 291 301 311 318 323 325 326 327 326 325 323 322 320 319 318 318 319
291 288 282 275 270 265 265 267 268 268 263 258 257 260 265 269 271 272 274 277 280 283 286 285 284 283 286 291 296 301 306 310 312 311 310 308 307 306 307 308 309 312 314
290 292 289 281 274 269 267 270 272 274 273 270 265 264 267 269 270 272 275 276 279 282 285 288 288 287 287 288 289 290 292 294 296 297 297 298 299 299 300 302 304 307 309
289 294 293 287 279 274 270 268 269 270 272 273 272 269 268 268 270 273 276 277 279 281 283 285 287 289 291 290 290 289 288 288 288 290 292 293 294 295 296 298 300 303 305
286 294 295 291 284 278 274 269 267 266 267 269 271 272 272 272 273 275 277 278 280 282 284 285 287 289 291 292 291 290 289 288 287 288 289 290 291 291 292 293 296 298 301
281 293 301 297 292 284 277 271 266 264 264 265 268 272 274 275 276 278 280 282 284 286 287 288 289 290 291 292 292 290 289 288 287 287 288 288 289 289 290 291 294 296 298
276 290 302 302 299 294 284 275 268 265 265 267 270 273 275 277 279 280 282 285 287 288 288 288 289 290 291 291 291 290 288 288 287 286 286 287 288 288 289 291 292 294 296
273 283 292 300 304 303 295 284 276 272 271 274 276 278 280 282 284 284 285 286 287 287 287 287 288 288 289 290 291 290 290 291 291 290 288 288 288 288 288 289 290 291 293
271 280 288 296 302 302 297 291 284 280 279 282 284 287 288 288 288 287 287 288 289 288 288 288 288 289 290 291 292 292 293 293 293 291 290 289 289 288 288 289 290 290 291
274 282 289 292 294 294 292 289 287 285 286 288 291 293 292 290 289 289 290 291 291 290 290 289 288 289 289 290 290 290 290 291 290 290 290 290 290 289 288 288 288 289 290
279 283 287 288 289 290 289 288 288 289 291 293 293 293 292 290 289 289 289 290 289 289 289 288 288 289 289 289 289 288 288 288 288 288 287 287 287 286 286 286 286 286 287
282 284 285 284 285 288 291 293 293 294 296 296 296 295 294 293 291 290 290 290 289 289 290 291 291 291 291 291 290 290 290 289 288 287 287 287 286 285 285 285 284 284 285
280 281 281 280 282 288 292 295 297 298 298 298 298 296 295 293 293 294 294 295 295 295 294 294 293 292 292 292 291 291 291 291 291 290 290 288 287 287 286 286 286 286 286
275 275 274 276 281 287 291 295 296 297 297 296 295 294 295 295 296 297 297 296 295 294 293 292 292 292 292 291 291 291 291 291 291 291 290 289 289 289 288 288 288 288 287
268 266 268 274 280 286 291 293 293 293 292 292 292 292 293 294 294 295 294 294 293 293 294 293 294 294 295 294 294 293 293 292 292 290 289 289 288 288 288 288 287 287 287
263 263 268 275 282 288 291 292 291 291 290 290 290 291 292 292 293 293 294 294 295 296 296 297 297 297 297 297 296 295 294 293 292 292 291 291 290 288 287 287 286 286 285
267 270 275 281 287 290 291 290 289 288 288 289 289 290 290 291 292 293 295 296 297 298 299 299 299 299 298 298 298 298 297 296 294 293 291 290 289 288 287 286 285 285 284
274 278 283 287 289 290 288 287 286 287 287 289 290 291 292 293 295 297 298 299 299 299 299 299 298 298 298 298 298 298 297 298 297 295 294 292 290 288 286 285 284 283 282
280 284 287 288 288 287 286 285 285 286 288 289 291 292 294 296 297 299 299 300 300 300 300 299 299 299 298 298 297 297 297 297 296 295 293 292 291 290 288 285 282 280 277
283 285 287 287 286 285 285 285 287 289 291 293 295 297 298 300 301 302 303 303 303 302 302 301 300 299 299 298 298 297 297 297 296 295 294 292 290 288 287 286 284 281 276
Height
5864 5864 5864 5864 5864 5863 5863 5863 5863 5863 5863 5863 5863 5863 5863 5862 5862 5862 5861 5860 5860 5860 5859 5858 5857 5856 5855 5854 5852 5850 5848 5846 5844 5843 5842 5841 5840 5838 5836 5835 5833 5831 5829
5862 5862 5863 5863 5862 5862 5861 5861 5861 5861 5861 5861 5861 5861 5861 5860 5860 5860 5859 5859 5859 5858 5857 5856 5855 5854 5853 5852 5850 5847 5845 5843 5841 5839 5837 5836 5835 5834 5832 5831 5829 5827 5825
5861 5861 5861 5861 5861 5860 5860 5859 5859 5858 5859 5859 5858 5858 5858 5858 5858 5857 5857 5857 5857 5856 5855 5854 5853 5851 5850 5849 5847 5844 5842 5839 5837 5835 5833 5831 5830 5829 5827 5826 5825 5823 5821
5859 5859 5859 5859 5859 5859 5858 5857 5857 5857 5857 5856 5856 5856 5856 5856 5855 5856 5855 5855 5855 5854 5853 5852 5850 5849 5847 5846 5844 5841 5839 5836 5834 5831 5829 5828 5826 5825 5823 5822 5821 5820 5818
5857 5857 5857 5857 5857 5857 5856 5856 5855 5855 5855 5854 5854 5854 5854 5854 5853 5854 5853 5853 5852 5852 5851 5849 5847 5846 5845 5843 5841 5838 5835 5833 5831 5829 5827 5825 5823 5822 5821 5820 5819 5817 5815
5855 5855 5855 5855 5855 5855 5854 5854 5854 5854 5853 5853 5852 5852 5852 5852 5851 5851 5851 5850 5850 5849 5847 5846 5844 5843 5842 5840 5838 5836 5833 5830 5828 5827 5825 5823 5821 5820 5818 5817 5816 5814 5812
5853 5853 5853 5853 5852 5852 5852 5852 5852 5851 5851 5851 5850 5850 5849 5849 5849 5848 5848 5847 5846 5845 5844 5842 5841 5840 5839 5837 5835 5833 5831 5829 5827 5825 5823 5821 5819 5818 5816 5814 5813 5811 5808
5852 5851 5851 5850 5850 5849 5849 5849 5849 5849 5848 5848 5847 5847 5847 5846 5846 5845 5844 5843 5842 5841 5840 5839 5838 5837 5836 5834 5832 5830 5828 5826 5824 5823 5821 5819 5816 5814 5812 5811 5809 5806 5804
5850 5849 5848 5848 5847 5846 5846 5846 5846 5846 5846 5845 5844 5844 5843 5843 5842 5842 5841 5840 5839 5838 5837 5835 5834 5833 5832 5830 5828 5826 5824 5822 5820 5819 5817 5814 5812 5810 5808 5806 5803 5801 5799
5847 5847 5846 5845 5844 5843 5843 5843 5843 5843 5842 5842 5841 5840 5840 5839 5839 5838 5837 5836 5835 5834 5832 5831 5830 5828 5827 5825 5823 5821 5819 5817 5815 5813 5811 5809 5807 5804 5802 5800 5797 5795 5792
5845 5844 5843 5842 5840 5840 5839 5839 5839 5839 5839 5838 5837 5836 5836 5835 5834 5833 5832 5831 5830 5829 5827 5826 5825 5823 5821 5819 5817 5815 5813 5811 5809 5806 5804 5802 5800 5797 5795 5792 5790 5788 5785
5843 5842 5840 5838 5837 5836 5836 5835 5835 5834 5834 5833 5833 5832 5831 5831 5830 5829 5827 5826 5825 5824 5822 5821 5819 5817 5815 5812 5810 5808 5806 5804 5802 5799 5796 5794 5792 5790 5787 5785 5782 5780 5777
5840 5839 5838 5835 5834 5833 5832 5831 5830 5829 5829 5828 5828 5827 5827 5826 5825 5823 5822 5821 5819 5818 5816 5814 5811 5809 5807 5805 5802 5800 5798 5796 5794 5791 5788 5785 5783 5781 5779 5776 5773 5771 5768
5837 5836 5834 5832 5831 5829 5828 5827 5826 5825 5825 5824 5823 5822 5821 5820 5819 5817 5815 5814 5812 5810 5808 5806 5803 5801 5798 5796 5794 5791 5789 5787 5785 5783 5780 5777 5774 5771 5769 5766 5764 5761 5758
5833 5832 5831 5829 5827 5826 5824 5823 5822 5822 5821 5820 5818 5817 5816 5814 5812 5810 5808 5806 5804 5801 5799 5797 5795 5792 5790 5787 5784 5782 5779 5777 5775 5772 5770 5767 5764 5761 5758 5756 5754 5751 5748
5828 5828 5827 5825 5824 5822 5820 5819 5818 5818 5817 5815 5813 5811 5809 5807 5805 5802 5800 5797 5794 5792 5789 5787 5785 5782 5780 5777 5774 5771 5769 5766 5764 5761 5759 5756 5753 5750 5747 5744 5742 5739 5737
5823 5823 5823 5821 5819 5818 5816 5815 5814 5813 5811 5809 5807 5804 5802 5799 5796 5794 5792 5789 5786 5783 5780 5778 5775 5773 5770 5767 5764 5760 5758 5755 5752 5749 5746 5744 5741 5737 5734 5732 5729 5726 5724
5817 5817 5817 5817 5815 5813 5812 5810 5808 5807 5805 5803 5800 5797 5794 5791 5788 5786 5784 5781 5778 5775 5773 5769 5766 5763 5760 5757 5754 5751 5748 5745 5741 5738 5734 5731 5727 5725 5722 5719 5716 5713 5711
5811 5811 5811 5811 5810 5809 5807 5804 5802 5800 5798 5796 5793 5790 5787 5784 5782 5780 5777 5774 5771 5768 5765 5761 5758 5754 5751 5748 5744 5741 5738 5734 5730 5726 5722 5718 5715 5712 5709 5706 5702 5700 5697
5806 5805 5806 5805 5805 5803 5801 5799 5796 5794 5791 5789 5786 5783 5781 5778 5775 5773 5770 5767 5763 5760 5757 5752 5748 5744 5741 5737 5733 5730 5727 5723 5719 5715 5710 5705 5702 5698 5695 5692 5688 5685 5682
5800 5800 5800 5800 5799 5797 5795 5792 5790 5787 5784 5782 5779 5777 5774 5771 5768 5765 5762 5758 5754 5751 5747 5743 5738 5734 5730 5724 5719 5717 5714 5710 5706 5702 5697 5692 5689 5684 5680 5676 5672 5669 5666
5796 5796 5795 5795 5793 5791 5788 5785 5783 5780 5777 5775 5772 5770 5767 5764 5760 5757 5753 5749 5745 5741 5736 5731 5726 5721 5717 5710 5704 5699 5698 5698 5693 5688 5682 5677 5673 5668 5664 5659 5655 5651 5648
5792 5791 5790 5789 5787 5785 5782 5779 5776 5773 5770 5768 5765 5762 5759 5755 5751 5747 5743 5739 5735 5730 5725 5720 5714 5708 5703 5698 5690 5684 5678 5676 5674 5674 5669 5664 5659 5654 5649 5643 5639 5634 5630
5786 5785 5784 5782 5780 5778 5775 5772 5769 5766 5763 5760 5757 5754 5750 5747 5742 5738 5734 5729 5724 5719 5713 5708 5702 5695 5689 5684 5677 5670 5663 5656 5651 5650 5650 5647 5642 5638 5632 5627 5622 5617 5613
5780 5778 5777 5775 5773 5771 5768 5765 5762 5759 5756 5753 5750 5746 5742 5738 5733 5729 5724 5718 5713 5707 5701 5694 5688 5681 5674 5667 5661 5654 5647 5639 5631 5624 5625 5625 5620 5617 5611 5607 5602 5598 5594
5773 5771 5769 5768 5766 5763 5760 5758 5755 5752 5748 5745 5741 5737 5732 5728 5723 5717 5711 5705 5698 5692 5685 5678 5671 5663 5655 5648 5641 5634 5626 5619 5611 5600 5595 5596 5595 5595 5588 5584 5580 5576 5572